CW2057 Weather Reports


Display with metric or nautical units.
time (UTC)temp
F
wind
direction
speed
MPH
gust
MPH
rain 1hr
in
rain 24hr
in
rain mn
in
humidity
%
barometer
mb
20260507101630 53 25 0.0 0.0 0.00 0.33 0.16 91 1012.4
20260507101119 53 25 0.0 0.0 0.00 0.33 0.16 90 1012.4
20260507100649 54 25 0.0 0.0 0.00 0.33 0.16 90 1012.4
20260507100117 54 25 0.0 0.0 0.00 0.33 0.16 89 1012.4
20260507095626 54 25 0.0 0.0 0.00 0.33 0.16 91 1012.5
20260507095116 54 25 0.0 0.0 0.00 0.33 0.16 91 1012.4
20260507094625 53 25 0.0 0.0 0.00 0.33 0.16 92 1012.4
20260507094113 53 25 0.0 0.0 0.00 0.33 0.16 92 1012.3
20260507093618 53 25 0.0 0.0 0.00 0.33 0.16 91 1012.4
20260507093127 53 25 0.0 0.0 0.00 0.33 0.16 90 1012.5
20260507092617 53 25 0.0 0.0 0.00 0.33 0.16 91 1012.6
20260507092146 53 25 0.0 0.0 0.00 0.33 0.16 90 1012.4
20260507091614 54 25 0.0 0.0 0.00 0.33 0.16 91 1012.6
20260507091122 53 25 0.0 0.0 0.00 0.33 0.16 91 1012.6
20260507090631 53 25 0.0 0.0 0.00 0.33 0.16 91 1012.5
20260507090120 53 25 0.0 0.0 0.00 0.33 0.16 91 1012.4
20260507085629 53 25 0.0 0.0 0.00 0.33 0.16 91 1012.3
20260507085138 52 25 0.0 0.0 0.00 0.33 0.16 90 1012.1
20260507084646 53 25 0.0 0.0 0.00 0.33 0.16 91 1012.2
20260507084114 53 25 0.0 0.0 0.00 0.33 0.16 91 1012.2
20260507083623 53 25 0.0 0.0 0.00 0.33 0.16 91 1012.0
20260507083152 53 25 0.0 0.0 0.00 0.33 0.16 91 1012.0
20260507082620 53 25 0.0 0.0 0.00 0.33 0.16 91 1011.8
20260507082125 52 25 0.0 0.0 0.00 0.33 0.16 91 1011.5
20260507081614 52 357 0.0 1.0 0.00 0.33 0.16 90 1011.4
20260507081122 53 357 0.0 1.0 0.01 0.33 0.16 90 1011.5
20260507080632 53 10 0.0 0.0 0.01 0.33 0.16 91 1011.5
20260507080121 52 10 0.0 0.0 0.01 0.33 0.16 91 1011.4
20260507075628 52 10 0.0 0.0 0.01 0.33 0.16 91 1011.2
20260507075117 52 355 0.0 0.0 0.01 0.33 0.16 91 1011.3
20260507074646 52 355 0.0 0.0 0.01 0.33 0.16 91 1011.2
20260507074114 52 64 0.0 0.0 0.01 0.33 0.16 91 1011.2
20260507073622 52 9 0.0 0.0 0.01 0.33 0.16 90 1011.3
20260507073131 53 4 0.0 1.0 0.01 0.33 0.16 91 1011.4
20260507072621 52 7 0.0 1.0 0.01 0.33 0.16 91 1011.4
20260507072149 52 7 0.0 1.0 0.01 0.33 0.16 91 1011.2
20260507071617 53 57 0.0 2.0 0.01 0.33 0.16 91 1011.4
20260507071126 53 17 0.0 1.0 0.00 0.32 0.15 91 1011.2
20260507070636 53 40 0.0 3.0 0.00 0.32 0.15 91 1011.5
20260507070123 53 17 0.0 3.0 0.00 0.32 0.15 91 1011.5
20260507065649 54 51 0.0 2.0 0.01 0.32 0.15 91 1011.6
20260507065116 54 26 0.0 4.0 0.01 0.32 0.15 91 1011.7
20260507064626 54 355 0.0 5.0 0.02 0.32 0.15 92 1011.7
20260507064115 55 347 0.0 1.0 0.02 0.32 0.15 92 1011.5
20260507063623 55 356 0.0 1.0 0.03 0.32 0.15 92 1011.3
20260507063132 55 355 0.0 0.0 0.04 0.32 0.15 92 1011.1
20260507062622 55 355 0.0 0.0 0.04 0.32 0.15 92 1011.3
20260507062130 55 355 0.0 0.0 0.05 0.32 0.15 92 1011.5
20260507061621 55 355 0.0 0.0 0.06 0.32 0.15 92 1011.4
20260507061131 56 355 0.0 0.0 0.07 0.32 0.15 92 1011.5
20260507060639 56 348 0.0 0.0 0.08 0.32 0.15 91 1011.5
20260507060127 56 348 0.0 0.0 0.09 0.32 0.15 91 1011.4
20260507055617 56 325 0.0 0.0 0.10 0.31 0.14 91 1011.3
20260507055125 56 325 0.0 1.0 0.10 0.31 0.14 91 1011.6
20260507054615 56 324 0.0 1.0 0.11 0.30 0.13 90 1011.6
20260507054123 56 315 0.0 0.0 0.12 0.30 0.13 90 1011.5
20260507053633 57 315 0.0 0.0 0.12 0.29 0.12 89 1011.6
20260507053122 57 315 0.0 0.0 0.11 0.28 0.11 89 1012.0
20260507052628 57 14 0.0 0.0 0.11 0.28 0.11 91 1011.6
20260507052153 57 14 0.0 0.0 0.10 0.27 0.10 91 1011.6
20260507051620 56 23 0.0 0.0 0.09 0.26 0.09 90 1011.4
20260507051149 56 23 0.0 0.0 0.08 0.25 0.08 89 1011.5
20260507050617 56 23 0.0 0.0 0.07 0.24 0.07 90 1011.5
20260507050125 57 23 0.0 2.0 0.06 0.23 0.06 89 1011.7
20260507045615 57 20 0.0 2.0 0.04 0.21 0.04 88 1012.0
20260507045124 58 12 0.0 3.0 0.03 0.20 0.03 87 1012.1
20260507044632 58 352 1.0 3.0 0.02 0.19 0.02 86 1012.0
20260507044121 58 37 0.0 2.0 0.01 0.18 0.01 85 1011.5
20260507043630 58 24 0.0 0.0 0.00 0.17 0.00 84 1011.3
20260507043118 58 18 0.0 0.0 0.00 0.17 0.00 85 1011.5
20260507042647 58 9 0.0 1.0 0.00 0.17 0.00 84 1011.4
20260507042135 59 7 0.0 8.0 0.00 0.17 0.00 83 1011.6
20260507041622 59 330 3.0 8.0 0.00 0.17 0.00 81 1011.7
20260507041131 60 24 2.0 7.0 0.00 0.17 0.00 80 1011.3
20260507040620 60 340 1.0 9.0 0.00 0.17 0.00 79 1011.4
20260507040123 61 18 3.0 9.0 0.00 0.17 0.00 78 1011.2
20260507035631 61 32 0.0 4.0 0.00 0.17 0.17 79 1011.0
20260507035120 61 5 0.0 2.0 0.00 0.17 0.17 80 1010.7
20260507034629 62 10 0.0 4.0 0.00 0.17 0.17 80 1010.7
20260507034117 62 67 0.0 4.0 0.00 0.17 0.17 79 1011.0
20260507033625 62 5 0.0 2.0 0.00 0.17 0.17 79 1010.6
20260507033114 62 346 0.0 3.0 0.00 0.17 0.17 79 1010.9
20260507032623 62 1 0.0 3.0 0.00 0.17 0.17 78 1011.0
20260507032151 62 2 0.0 2.0 0.00 0.17 0.17 78 1010.9
20260507031620 62 3 0.0 2.0 0.00 0.17 0.17 78 1010.8
20260507031129 62 15 0.0 3.0 0.00 0.17 0.17 78 1010.9
20260507030617 63 14 0.0 3.0 0.00 0.17 0.17 77 1010.9
20260507030126 63 18 1.0 4.0 0.00 0.17 0.17 77 1010.6
20260507025617 63 19 0.0 4.0 0.00 0.17 0.17 77 1010.4
20260507025124 63 342 0.0 2.0 0.00 0.17 0.17 77 1010.4
20260507024614 63 33 0.0 4.0 0.00 0.17 0.17 77 1010.5
20260507024123 63 14 0.0 4.0 0.00 0.17 0.17 77 1010.4
20260507023630 63 25 1.0 4.0 0.00 0.17 0.17 77 1010.5
20260507023119 63 21 0.0 4.0 0.00 0.17 0.17 77 1010.4
20260507022644 63 165 1.0 4.0 0.00 0.17 0.17 78 1010.3
20260507022132 63 165 0.0 5.0 0.00 0.17 0.17 78 1010.3
20260507021620 63 165 1.0 5.0 0.00 0.17 0.17 79 1010.3
20260507021128 64 165 2.0 4.0 0.00 0.17 0.17 81 1010.2
20260507020618 64 165 1.0 3.0 0.00 0.17 0.17 83 1010.5
20260507020147 65 165 0.0 1.0 0.00 0.17 0.17 83 1010.4
20260507015615 65 165 0.0 1.0 0.00 0.17 0.17 83 1010.4
20260507015123 65 165 0.0 3.0 0.00 0.17 0.17 83 1010.2
20260507014632 65 165 1.0 3.0 0.00 0.17 0.17 83 1010.0
20260507014140 66 165 0.0 2.0 0.00 0.17 0.17 82 1010.1
20260507013627 66 165 0.0 2.0 0.00 0.17 0.17 82 1010.3
20260507013116 66 165 0.0 2.0 0.00 0.17 0.17 81 1010.4
20260507012621 66 165 0.0 1.0 0.00 0.17 0.17 81 1010.4
20260507012131 66 165 0.0 1.0 0.00 0.17 0.17 80 1010.3
20260507011640 66 165 0.0 3.0 0.00 0.17 0.17 80 1010.2
20260507010616 67 165 1.0 5.0 0.00 0.17 0.17 80 1010.5
20260507010121 67 165 1.0 5.0 0.00 0.17 0.17 81 1010.4
20260507005631 68 165 0.0 2.0 0.00 0.17 0.17 82 1010.3
20260507005119 67 165 0.0 2.0 0.00 0.17 0.17 81 1010.0
20260507004627 68 165 0.0 2.0 0.00 0.17 0.17 81 1010.0
20260507004116 68 165 0.0 1.0 0.00 0.17 0.17 81 1010.0
20260507003625 68 165 0.0 0.0 0.00 0.17 0.17 81 1009.9
20260507003153 68 165 0.0 0.0 0.00 0.17 0.17 81 1009.8
20260507002642 68 165 0.0 0.0 0.00 0.17 0.17 81 1009.9
20260507002130 68 165 0.0 0.0 0.00 0.17 0.17 80 1009.8
20260507001619 68 165 0.0 0.0 0.00 0.17 0.17 80 1009.7
20260507001127 68 165 0.0 0.0 0.00 0.17 0.17 80 1009.8
20260507000617 68 165 0.0 0.0 0.00 0.17 0.17 80 1009.7
20260507000126 68 165 0.0 0.0 0.00 0.17 0.17 79 1009.6
20260506235614 68 165 0.0 3.0 0.00 0.17 0.17 79 1009.6
20260506235143 68 165 0.0 3.0 0.00 0.17 0.17 79 1009.5
20260506234630 68 165 0.0 0.0 0.00 0.17 0.17 79 1009.5
20260506234118 69 165 0.0 2.0 0.00 0.17 0.17 78 1009.3
20260506233623 69 165 0.0 3.0 0.00 0.17 0.17 78 1009.3
20260506233132 69 165 1.0 3.0 0.00 0.17 0.17 78 1009.3
20260506232642 69 165 0.0 4.0 0.00 0.17 0.17 77 1009.2
20260506232129 69 165 1.0 4.0 0.00 0.17 0.17 77 1009.2
20260506231617 69 165 1.0 4.0 0.00 0.17 0.17 77 1009.1
20260506231126 69 165 0.0 3.0 0.00 0.17 0.17 77 1009.1
20260506230616 69 165 0.0 0.0 0.00 0.17 0.17 77 1009.2
20260506230125 69 165 0.0 2.0 0.00 0.17 0.17 77 1009.2
20260506225634 70 165 0.0 3.0 0.00 0.17 0.17 76 1009.1
20260506225122 70 165 1.0 5.0 0.00 0.17 0.17 76 1009.2
20260506224632 70 165 1.0 5.0 0.00 0.17 0.17 75 1009.1
20260506224117 70 165 0.0 3.0 0.00 0.17 0.17 76 1009.0
20260506223645 70 165 1.0 4.0 0.00 0.17 0.17 76 1009.0
20260506223114 69 165 1.0 4.0 0.00 0.17 0.17 76 1009.0
20260506222644 69 165 1.0 3.0 0.00 0.17 0.17 76 1009.3
20260506222126 70 165 0.0 5.0 0.00 0.17 0.17 76 1009.2
20260506221616 70 165 2.0 5.0 0.00 0.17 0.17 75 1009.2
20260506221126 70 165 1.0 6.0 0.00 0.17 0.17 75 1009.3
20260506220615 70 165 1.0 6.0 0.00 0.17 0.17 75 1009.2
20260506220123 70 165 1.0 6.0 0.00 0.17 0.17 75 1009.1
20260506215632 70 165 1.0 6.0 0.00 0.17 0.17 74 1009.1
20260506215121 71 165 1.0 6.0 0.00 0.17 0.17 74 1009.2
20260506214629 71 165 1.0 6.0 0.00 0.17 0.17 74 1009.1
20260506214118 71 165 4.0 6.0 0.00 0.17 0.17 73 1009.0
20260506213626 71 165 1.0 5.0 0.00 0.17 0.17 73 1009.0
20260506213115 71 165 1.0 4.0 0.00 0.17 0.17 73 1008.8
20260506212623 71 165 0.0 4.0 0.00 0.17 0.17 74 1008.8
20260506212132 70 165 1.0 5.0 0.00 0.17 0.17 74 1008.7
20260506211642 71 165 2.0 6.0 0.00 0.17 0.17 74 1008.9
20260506211128 70 165 0.0 6.0 0.00 0.17 0.17 74 1008.7
20260506210617 71 165 2.0 6.0 0.00 0.17 0.17 74 1008.7
20260506210125 71 165 2.0 5.0 0.00 0.17 0.17 73 1008.6
20260506205615 71 165 1.0 5.0 0.00 0.17 0.17 73 1008.6
20260506205144 71 165 2.0 5.0 0.00 0.17 0.17 73 1008.5
20260506204626 71 165 2.0 5.0 0.00 0.17 0.17 72 1008.5
20260506204115 71 165 2.0 6.0 0.00 0.17 0.17 72 1008.3
20260506203624 71 165 2.0 9.0 0.00 0.17 0.17 73 1008.6
20260506203132 71 165 2.0 9.0 0.00 0.17 0.17 74 1008.5
20260506202621 71 165 1.0 6.0 0.00 0.17 0.17 73 1008.7
20260506202130 71 165 2.0 6.0 0.00 0.17 0.17 72 1008.7
20260506201618 71 165 2.0 10.0 0.00 0.17 0.17 72 1008.5
20260506201127 71 165 4.0 10.0 0.00 0.17 0.17 72 1008.6
20260506200616 72 165 2.0 6.0 0.00 0.17 0.17 72 1008.4
20260506200125 72 305 2.0 8.0 0.00 0.17 0.17 71 1008.6
20260506195615 72 165 3.0 10.0 0.00 0.17 0.17 71 1008.6
20260506195123 72 165 4.0 12.0 0.00 0.17 0.17 70 1008.6
20260506194632 72 165 6.0 12.0 0.00 0.17 0.17 71 1008.6
20260506194120 72 165 3.0 10.0 0.00 0.17 0.17 71 1008.6
20260506193630 72 165 2.0 10.0 0.00 0.17 0.17 72 1008.5
20260506193118 71 11 3.0 12.0 0.00 0.17 0.17 72 1008.6
20260506192647 71 290 5.0 12.0 0.00 0.17 0.17 73 1008.6
20260506192135 71 214 2.0 10.0 0.00 0.17 0.17 74 1008.7
20260506191622 70 283 3.0 12.0 0.00 0.17 0.17 74 1008.8
20260506191127 70 282 4.0 12.0 0.00 0.17 0.17 75 1008.9
20260506190617 70 297 3.0 14.0 0.00 0.17 0.17 75 1008.9
20260506190146 70 274 3.0 14.0 0.00 0.17 0.17 75 1009.0
20260506185632 69 284 3.0 14.0 0.00 0.17 0.17 74 1009.0
20260506185121 69 7 4.0 13.0 0.00 0.17 0.17 75 1009.1
20260506184630 69 291 2.0 8.0 0.00 0.17 0.17 77 1009.2
20260506184138 68 247 1.0 9.0 0.00 0.17 0.17 78 1009.2
20260506183627 68 331 3.0 11.0 0.00 0.17 0.17 78 1009.1
20260506183116 68 288 4.0 12.0 0.00 0.17 0.17 78 1009.2
20260506182625 68 200 2.0 12.0 0.00 0.17 0.17 79 1009.2
20260506182133 67 265 3.0 10.0 0.00 0.17 0.17 79 1009.2
20260506181622 67 261 4.0 9.0 0.00 0.17 0.17 79 1009.3
20260506181150 67 287 1.0 13.0 0.00 0.17 0.17 81 1009.3
20260506180618 66 305 5.0 13.0 0.00 0.17 0.17 80 1009.2
20260506180127 66 193 2.0 8.0 0.00 0.17 0.17 80 1009.5
20260506175617 66 278 2.0 13.0 0.00 0.17 0.17 81 1009.5
20260506175124 66 191 4.0 13.0 0.00 0.17 0.17 81 1009.5
20260506174614 66 312 2.0 10.0 0.00 0.17 0.17 82 1009.5
20260506174119 66 322 2.0 13.0 0.00 0.17 0.17 81 1009.5
20260506173627 66 280 4.0 13.0 0.00 0.17 0.17 82 1009.4
20260506173116 66 165 3.0 10.0 0.00 0.17 0.17 83 1009.3
20260506172624 65 240 3.0 10.0 0.00 0.17 0.17 83 1009.5
20260506172131 65 212 4.0 11.0 0.00 0.17 0.17 83 1009.5
20260506171620 65 249 4.0 11.0 0.00 0.17 0.17 84 1009.6
20260506171127 65 197 4.0 13.0 0.00 0.17 0.17 84 1009.6
20260506170617 65 252 3.0 13.0 0.00 0.17 0.17 84 1009.6
20260506170146 64 324 3.0 11.0 0.00 0.17 0.17 86 1009.6
20260506165614 64 264 4.0 11.0 0.00 0.17 0.17 85 1009.7
20260506165143 63 218 2.0 12.0 0.00 0.17 0.17 86 1009.7
20260506164632 63 280 5.0 16.0 0.00 0.17 0.17 86 1009.7
20260506164119 63 239 4.0 16.0 0.00 0.17 0.17 87 1009.9
20260506163628 63 333 2.0 9.0 0.00 0.17 0.17 87 1009.7
20260506163137 63 238 3.0 11.0 0.00 0.17 0.17 88 1009.6
20260506162625 63 165 4.0 12.0 0.00 0.17 0.17 88 1009.7
20260506162149 62 222 4.0 13.0 0.00 0.17 0.17 88 1009.6
20260506161617 62 288 3.0 17.0 0.01 0.17 0.17 89 1009.8
20260506161125 62 288 3.0 20.0 0.01 0.17 0.17 89 1009.9
20260506160614 62 165 3.0 20.0 0.01 0.17 0.17 89 1009.9
20260506160124 62 50 5.0 14.0 0.01 0.17 0.17 90 1009.9
20260506155614 62 147 5.0 14.0 0.01 0.17 0.17 89 1009.9
20260506155122 62 249 3.0 11.0 0.01 0.17 0.17 90 1009.8
20260506154651 61 213 4.0 11.0 0.02 0.17 0.17 90 1009.9
20260506154119 61 189 4.0 11.0 0.02 0.17 0.17 90 1010.1
20260506153647 61 309 2.0 11.0 0.03 0.17 0.17 90 1009.9
20260506153115 61 307 5.0 15.0 0.04 0.17 0.17 90 1009.9
20260506152623 61 226 4.0 15.0 0.04 0.17 0.17 90 1009.9
20260506152131 61 251 4.0 13.0 0.05 0.17 0.17 90 1010.0
20260506151620 61 236 4.0 11.0 0.05 0.16 0.16 90 1010.2
20260506151128 61 232 3.0 11.0 0.06 0.16 0.16 90 1010.3
20260506150617 61 259 2.0 12.0 0.06 0.16 0.16 90 1010.4
20260506150126 61 196 4.0 12.0 0.07 0.16 0.16 90 1010.4
20260506145614 61 98 3.0 9.0 0.07 0.16 0.16 90 1010.6
20260506145117 61 154 4.0 11.0 0.08 0.16 0.16 90 1010.7
20260506144627 61 255 4.0 14.0 0.08 0.15 0.15 90 1010.7
20260506144115 61 120 3.0 18.0 0.08 0.15 0.15 90 1010.7
20260506143625 61 193 7.0 18.0 0.08 0.14 0.14 90 1010.7
20260506143114 61 251 5.0 14.0 0.07 0.13 0.13 90 1010.5
20260506142623 61 243 3.0 13.0 0.07 0.13 0.13 90 1010.4
20260506142132 61 239 6.0 13.0 0.07 0.12 0.12 90 1010.6
20260506141620 61 220 3.0 15.0 0.07 0.11 0.11 90 1010.4
20260506141129 61 221 3.0 15.0 0.07 0.10 0.10 89 1010.4
20260506140618 61 174 2.0 13.0 0.08 0.10 0.10 89 1010.4
20260506140127 61 228 3.0 11.0 0.07 0.09 0.09 89 1010.5
20260506135636 61 226 6.0 11.0 0.07 0.09 0.09 89 1010.6
20260506135145 61 262 5.0 12.0 0.07 0.08 0.08 89 1010.6
20260506134632 61 220 6.0 12.0 0.06 0.07 0.07 88 1010.7
20260506134121 61 84 4.0 11.0 0.07 0.07 0.07 88 1011.0
20260506133650 62 248 4.0 8.0 0.06 0.06 0.06 88 1011.1
20260506133118 62 301 2.0 10.0 0.06 0.06 0.06 88 1011.3
20260506132621 62 316 3.0 10.0 0.06 0.06 0.06 87 1011.1
20260506132131 62 47 2.0 9.0 0.05 0.05 0.05 87 1010.8
20260506131621 62 216 2.0 9.0 0.04 0.04 0.04 86 1010.6
20260506131129 62 222 1.0 4.0 0.03 0.03 0.03 85 1010.7
20260506130618 62 236 1.0 9.0 0.02 0.02 0.02 85 1010.6
20260506130127 63 211 2.0 9.0 0.02 0.02 0.02 84 1010.7
20260506125616 63 205 2.0 9.0 0.02 0.02 0.02 83 1010.5
20260506125144 63 154 3.0 8.0 0.01 0.01 0.01 83 1010.4
20260506124633 63 272 3.0 9.0 0.01 0.01 0.01 82 1010.5
20260506124122 63 244 2.0 9.0 0.00 0.00 0.00 81 1010.4
20260506123630 63 213 1.0 7.0 0.00 0.00 0.00 80 1010.5
20260506123139 64 356 2.0 8.0 0.00 0.00 0.00 80 1010.5
20260506122627 64 93 1.0 8.0 0.00 0.00 0.00 79 1010.6
20260506122116 64 218 1.0 8.0 0.00 0.00 0.00 79 1010.8
20260506121625 64 188 0.0 7.0 0.00 0.00 0.00 78 1010.9
20260506121133 64 249 2.0 6.0 0.00 0.00 0.00 77 1010.9
20260506120621 64 315 2.0 10.0 0.00 0.00 0.00 76 1010.9
20260506120127 64 284 2.0 10.0 0.00 0.00 0.00 75 1011.0
20260506115614 64 45 1.0 6.0 0.00 0.00 0.00 75 1010.8
20260506115120 65 228 2.0 6.0 0.00 0.00 0.00 75 1010.8
20260506114629 65 232 1.0 12.0 0.00 0.00 0.00 74 1010.8
20260506114137 65 231 3.0 12.0 0.00 0.00 0.00 73 1010.7
20260506113624 65 276 3.0 11.0 0.00 0.00 0.00 73 1010.5
20260506113133 65 212 2.0 11.0 0.00 0.00 0.00 73 1010.5
20260506112621 65 227 2.0 9.0 0.00 0.00 0.00 73 1010.5
20260506112129 65 211 4.0 12.0 0.00 0.00 0.00 72 1010.4
20260506111619 65 269 6.0 12.0 0.00 0.00 0.00 72 1010.3
20260506111127 65 180 4.0 12.0 0.00 0.00 0.00 72 1010.3
20260506110616 65 72 1.0 17.0 0.00 0.00 0.00 72 1010.2
20260506110144 65 313 2.0 17.0 0.00 0.00 0.00 72 1010.3
20260506105632 65 304 5.0 13.0 0.00 0.00 0.00 72 1010.3
20260506105120 65 274 4.0 13.0 0.00 0.00 0.00 72 1010.2
20260506104629 65 234 3.0 16.0 0.00 0.00 0.00 72 1010.1
20260506104139 65 239 5.0 16.0 0.00 0.00 0.00 72 1010.1
20260506103627 65 228 2.0 11.0 0.00 0.00 0.00 72 1010.0
20260506103115 65 307 2.0 9.0 0.00 0.00 0.00 72 1009.9
20260506102620 65 222 3.0 12.0 0.00 0.00 0.00 72 1010.0
20260506102129 65 165 6.0 12.0 0.00 0.00 0.00 72 1010.0